Regional Weather Roundup
Issued by NWS

Home | Current Version | Previous Version | Graphics & Text | Print | Product List | Glossary On
Versions: 1 2 3 4 5 6 7 8 9 10 11 12 13 14 15 16 17 18 19 20 21 22 23 24 25 26 27 28 29 30 31 32 33 34 35 36 37 38 39 40 41 42 43 44 45 46 47 48 49 50
000
ASUS44 KMEG 290300
RWRTN
TENNESSEE HOURLY STATE WEATHER ROUNDUP
NATIONAL WEATHER SERVICE MEMPHIS TN
1000 PM CDT TUE JUL 28 2015

TNZ002-004-019-021-049-052-054-088>092-290400-
WEST TENNESSEE

CITY           SKY/WX    TMP DP  RH WIND       PRES   REMARKS
MEMPHIS INTL   CLEAR     88  75  65 CALM      29.99R HX  97
NWS MEMPHIS      N/A     82 N/A N/A MISG        N/A
JACKSON        CLEAR     82  78  88 CALM      30.01R HX  91
DYERSBURG        N/A    N/A N/A N/A MISG        N/A
PARIS          PTCLDY    72  70  94 SE5       30.03F
LEXINGTON        N/A     73  70  88 NE10      30.06R
$$

TNZ008-025-027-028-033-062-065-066-290400-
NORTH MIDDLE TENNESSEE

CITY           SKY/WX    TMP DP  RH WIND       PRES   REMARKS
NASHVILLE      LGT RAIN  76  76 100 NW5       30.02S
CLARKSVILLE    CLOUDY    75  72  90 W5        30.02R
CROSSVILLE     MOCLDY    73  69  87 CALM      30.08S
$$

TNZ061-075-076-078-094-096-097-290400-
SOUTH MIDDLE TENNESSEE

CITY           SKY/WX    TMP DP  RH WIND       PRES   REMARKS
FAYETTEVILLE   CLEAR     75  73  94 CALM      30.03S
TULLAHOMA      CLEAR     73  72  94 CALM      30.04S
WINCHESTER     CLEAR     73  73 100 CALM      30.03S
MCMINNVILLE    CLEAR     75  75 100 CALM      30.03S
SHELBYVILLE    CLEAR     75  75 100 CALM      30.02F
$$

TNZ017-018-042-046-047-290400-
NORTHEAST TENNESSEE

CITY           SKY/WX    TMP DP  RH WIND       PRES   REMARKS
TRI CITIES     PTCLDY    74  70  87 CALM      30.04S
ELIZABETHTON   CLEAR     70  66  88 CALM      30.06S
$$

TNZ012-013-036-069-073-074-290400-
CENTRAL EAST TENNESSEE

CITY           SKY/WX    TMP DP  RH WIND       PRES   REMARKS
KNOXVILLE      MOCLDY    78  72  81 SW7       30.02R
OAK RIDGE      MOCLDY    77  72  84 CALM      30.03R
GATLINBURG     PTCLDY    75  72  88 CALM      30.02S
$$

TNZ083-085-099-290400-
SOUTHEAST TENNESSEE

CITY           SKY/WX    TMP DP  RH WIND       PRES   REMARKS
CHATTANOOGA    MOCLDY    80  75  84 CALM      30.02R
$$

SKY/WX REPORTED AS FAIR MEANS FEW OR NO CLOUDS BELOW
12 THOUSAND FEET.



USA.gov is the U.S. government's official web portal to all federal, state and local government web resources and services.